EDT,Max TemperatureF,Mean TemperatureF,Min TemperatureF,Max Dew PointF,MeanDew PointF,Min DewpointF,Max Humidity, Mean Humidity, Min Humidity, Max Sea Level PressureIn, Mean Sea Level PressureIn, Min Sea Level PressureIn, Max VisibilityMiles, Mean VisibilityMiles, Min VisibilityMiles, Max Wind SpeedMPH, Mean Wind SpeedMPH, Max Gust SpeedMPH,PrecipitationIn, CloudCover, Events, WindDirDegrees
2012-10-1,64,53,42,54,51,43,100,75,59,29.96,29.90,29.85,20,14,10,10,6,,0.00,6,,52
2012-10-2,69,63,57,64,61,55,94,90,78,29.89,29.85,29.81,7,5,2,8,6,,0.00,8,Rain,101
2012-10-3,69,66,60,64,58,54,94,77,56,30.14,30.06,29.98,10,9,4,16,10,,0.00,6,,218
2012-10-4,73,66,59,57,54,52,77,63,53,30.16,30.13,30.09,10,10,10,12,9,23,0.00,3,,225
2012-10-5,64,58,51,57,55,50,94,86,73,30.08,30.04,29.98,10,6,2,14,9,,0.00,8,Rain,266
2012-10-6,55,50,46,45,39,36,93,65,51,30.10,30.03,29.95,20,14,7,18,13,29,0.00,7,,274
2012-10-7,48,46,44,45,42,39,93,85,76,30.14,30.11,30.06,20,9,4,12,7,,0.00,7,Rain,220
2012-10-8,53,47,41,37,36,32,87,66,44,30.24,30.20,30.17,20,15,10,12,8,,0.00,4,,193
2012-10-9,64,52,41,39,38,36,87,57,40,30.18,30.08,29.98,20,15,10,17,11,21,0.00,2,,188
2012-10-10,53,50,44,46,39,30,93,69,51,30.15,29.98,29.85,15,9,3,17,14,29,0.00,7,Rain,277
2012-10-11,59,50,41,34,33,30,66,48,38,30.24,30.16,30.09,10,10,10,16,13,25,0.00,2,,231
2012-10-12,53,46,39,36,33,30,87,59,47,30.43,30.37,30.26,10,10,7,18,13,23,0.00,5,,25
2012-10-13,64,50,37,50,39,28,70,55,38,30.36,30.17,29.98,10,10,7,17,13,25,0.00,7,Rain,172
2012-10-14,77,70,62,61,58,57,88,70,50,29.95,29.80,29.60,10,9,4,17,14,29,0.00,6,Rain,203
2012-10-15,55,53,51,48,45,43,82,73,67,29.90,29.81,29.72,10,9,5,21,16,25,0.00,8,Rain,278
2012-10-16,60,53,46,39,39,37,71,61,45,29.99,29.91,29.84,20,11,10,12,9,,0.00,4,,244
2012-10-17,71,60,50,54,47,39,67,56,43,29.83,29.76,29.70,10,10,10,14,12,,0.00,6,,175
2012-10-18,64,57,50,50,47,41,88,76,52,29.77,29.66,29.54,10,10,10,129,19,23,0.00,7,,183
2012-10-19,60,54,48,46,42,34,93,66,36,29.96,29.66,29.52,10,8,7,16,13,,0.00,7,Rain,195
2012-10-20,53,50,46,45,44,43,87,77,67,29.89,29.77,29.68,10,9,7,16,12,25,0.00,7,,246
2012-10-21,59,52,44,46,43,41,93,72,51,30.13,30.10,30.05,10,10,7,12,8,,0.00,2,,259
2012-10-22,75,60,46,54,50,41,81,56,41,30.14,30.08,30.04,20,14,10,12,8,,0.00,3,,179
2012-10-23,68,64,60,61,59,54,94,85,64,30.05,30.02,29.99,10,8,2,14,9,,0.00,7,Rain-Thunderstorm,216
2012-10-24,78,70,62,61,57,54,88,64,47,30.11,30.06,30.03,10,10,7,9,8,,0.00,4,,198
2012-10-25,80,71,62,52,49,45,68,44,28,30.08,30.01,29.94,20,11,10,14,9,,0.00,2,,192
2012-10-26,57,54,50,54,50,48,100,94,88,30.18,30.15,30.11,10,4,2,16,11,,0.00,8,Rain,355
2012-10-27,50,48,46,46,45,43,93,88,76,30.10,30.08,30.06,10,6,2,14,11,23,0.00,8,Rain,27
2012-10-28,44,43,42,43,42,39,93,91,81,30.07,30.01,29.97,10,6,3,18,15,23,0.00,8,Rain,39
2012-10-29,60,51,42,45,41,36,100,88,39,30.14,29.76,29.49,10,5,3,29,17,46,0.00,7,Rain,9
2012-10-30,50,47,44,48,46,43,94,93,93,29.36,29.26,29.19,10,7,4,21,17,40,0.00,8,Rain,354
2012-10-31,46,44,42,45,43,41,93,92,87,29.61,29.53,29.41,7,5,2,16,15,28,0.00,8,Rain,296